Location: Mauries
(43.6188°N, 0.3322°W)
Time: 12:05:05
(UTC+00:00)

Envisat - Pass Details

Date: 12 March 2026
Orbit: 761 x 762 km, 98.4° (Epoch: 14 April)

Event Time Altitude Azimuth Distance (km) Brightness Sun altitude
Rises 02:59:08 0° 10° (N) 3,234 6.8 -35.3°
Reaches altitude 10° 03:01:27 10° 9° (N) 2,304 5.9 -34.9°
Enters shadow 03:03:12 22° 5° (N) 1,628 5.0 -34.7°
